Location: Quebec
(46.8000°N, 71.2500°W)
Time: 11:31:29
(UTC-04:00)

OTV 5 (USA 277) - Pass Details

Date: 10 October 2017
Orbit: 404 x 417 km, 43.0° (Epoch: 07 September)

Event Time Altitude Azimuth Distance (km) Brightness Sun altitude
Rises 19:44:21 0° 227° (SW) 2,347 ? -17.5°
Reaches altitude 10° 19:46:43 10° 212° (SSW) 1,486 ? -17.9°
Enters shadow 19:48:51 22° 175° (S) 974 ? -18.2°
